TimeEST,TemperatureF,Dew PointF,Humidity,Sea Level PressureIn,VisibilityMPH,Wind Direction,Wind SpeedMPH,Gust SpeedMPH,PrecipitationIn,Events,Conditions,WindDirDegrees,DateUTC
12:53 AM,35.1,28.0,76,30.46,10.0,Calm,Calm,-,N/A,,Clear,0,2012-11-18 05:53:00
2:53 AM,34.0,27.0,75,30.45,10.0,Calm,Calm,-,N/A,,Clear,0,2012-11-18 07:53:00
3:53 AM,32.0,27.0,82,30.44,10.0,Calm,Calm,-,N/A,,Clear,0,2012-11-18 08:53:00
4:53 AM,33.1,28.0,82,30.45,10.0,Calm,Calm,-,N/A,,Clear,0,2012-11-18 09:53:00
5:53 AM,30.9,26.1,82,30.45,10.0,Calm,Calm,-,N/A,,Clear,0,2012-11-18 10:53:00
6:53 AM,30.9,26.1,82,30.45,10.0,Calm,Calm,-,N/A,,Clear,0,2012-11-18 11:53:00
7:53 AM,30.0,26.1,85,30.46,10.0,Calm,Calm,-,N/A,,Clear,0,2012-11-18 12:53:00
8:53 AM,37.0,28.9,73,30.46,10.0,Calm,Calm,-,N/A,,Clear,0,2012-11-18 13:53:00
9:53 AM,42.1,30.0,62,30.46,10.0,East,3.5,-,N/A,,Clear,100,2012-11-18 14:53:00
10:53 AM,46.9,30.9,54,30.46,10.0,Calm,Calm,-,N/A,,Clear,0,2012-11-18 15:53:00
11:53 AM,50.0,30.9,48,30.44,10.0,Calm,Calm,-,N/A,,Clear,0,2012-11-18 16:53:00
12:53 PM,53.1,30.9,43,30.41,10.0,Calm,Calm,-,N/A,,Clear,0,2012-11-18 17:53:00
1:53 PM,55.9,30.0,37,30.38,10.0,Calm,Calm,-,N/A,,Clear,0,2012-11-18 18:53:00
2:53 PM,57.9,30.0,35,30.37,10.0,SSE,5.8,-,N/A,,Clear,150,2012-11-18 19:53:00
3:53 PM,57.0,30.9,37,30.36,10.0,ESE,8.1,-,N/A,,Clear,110,2012-11-18 20:53:00
4:53 PM,54.0,30.9,41,30.37,10.0,Calm,Calm,-,N/A,,Clear,0,2012-11-18 21:53:00
5:53 PM,51.1,30.0,44,30.37,10.0,Calm,Calm,-,N/A,,Clear,0,2012-11-18 22:53:00
6:53 PM,45.0,37.9,76,30.39,10.0,Calm,Calm,-,N/A,,Clear,0,2012-11-18 23:53:00
7:53 PM,42.1,36.0,79,30.40,10.0,Calm,Calm,-,N/A,,Clear,0,2012-11-19 00:53:00
8:53 PM,37.9,30.0,73,30.40,10.0,Calm,Calm,-,N/A,,Clear,0,2012-11-19 01:53:00
9:53 PM,41.0,33.1,73,30.39,10.0,Calm,Calm,-,N/A,,Clear,0,2012-11-19 02:53:00
10:53 PM,37.9,28.9,70,30.38,10.0,Calm,Calm,-,N/A,,Clear,0,2012-11-19 03:53:00
11:53 PM,37.0,30.0,76,30.38,10.0,Calm,Calm,-,N/A,,Clear,0,2012-11-19 04:53:00